Find ADD-425-2

NORAD ID: 59452 Int'l Des: 2024-066 Owner: DAPA Country: KR operational
LEOCIRCULAR

リアルタイム位置

3D地球を読み込み中...

ADD-425-2について

説明を読み込み中...

次回通過

Passes for default location (London). Set your location on the main map for personalized predictions.

高度履歴

Loading altitude history...

軌道要素

1 59452U 24066L 26105.69958767 .00001890 00000-0 17368-3 0 9990
2 59452 45.4102 208.0099 0005930 59.8499 300.2966 14.98689379110688
Epoch: Apr 15, 2026 • Age: 9 hours

現在のステータス

高度 589.1 km
速度 7.56 km/s
衛星直下点 -44.62°S, 131.95°W
打ち上げ日 Apr 7, 2024
運用期間 2 years
タイプ other

技術仕様

分類 Payload
質量 800.00 kg
乾燥質量 750.00 kg
総質量 800.00 kg
長さ 2.90 m
直径 1.90 m
スパン 6.00 m
形状 Hex+3 pan
製造者 KRAI
バスタイプ CAS500
フェーズステータス In Orbit
所有者/国 DAPA/KR

Most Searched